Weather History for Scappoose, OR

Change the Weather History Date:

Sunday, June 16, 2013

  Actual Average Record
Temperature  
Mean Temperature 60 °F -  
Max Temperature 71 °F - 84 °F (2003)
Min Temperature 51 °F - 39 °F (2011)
Degree Days  
Heating Degree Days 4    
Month to date heating degree days 72  
Since 1 June heating degree days 72  
Since 1 July heating degree days 4689  
Cooling Degree Days 0    
Month to date cooling degree days 8  
Year to date cooling degree days 16  
Since 1 June cooling degree days 8  
Growing Degree Days 10 (Base 50)    
Moisture  
Dew Point 53 °F    
Average Humidity 75    
Maximum Humidity 89    
Minimum Humidity 61    
Precipitation  
Precipitation 0.06 in - 0.15 in (2005)
Month to date precipitation 0.71  
Year to date precipitation 13.03  
Sea Level Pressure  
Sea Level Pressure 30.07 in    
Wind  
Wind Speed 3 mph (NNE)    
Max Wind Speed 10 mph    
Max Gust Speed 14 mph    
Visibility 10 miles    
Events Rain    
T = Trace of Precipitation, MM = Missing Value Source: NWS Daily Summary

Daily Weather History Graph

Daily Weather History Graph

Search for Another Location

Airport:

Trip Planner

Search our weather history database for the weather conditions in past years. The results will help you decide how hot, cold, wet, or windy it might be!

Date:

Astronomy

Jun. 16, 2013 Rise Set
Actual Time 5:20 AM PDT 9:03 PM PDT
Civil Twilight 4:42 AM PDT 9:41 PM PDT
Nautical Twilight 3:51 AM PDT 10:33 PM PDT
Astronomical Twilight 2:40 AM PDT 11:44 PM PDT
Moon 1:25 PM PDT (6/16) 12:49 AM PDT (6/16)
Length of Visible Light 16h 59m
Length of Day
15h 42m
Waxing Crescent, 51% of the Moon is Illuminated
Jun 16
Waxing Crescent
Jun 23
Full
Jun 29
Last Quarter
Jul 8
New
Jul 15
First Quarter

Hourly Weather History & Observations

Time (PDT) Temp. Dew Point Humidity Pressure Visibility Wind Dir Wind Speed Gust Speed Precip Events Conditions
12:53 AM 57.9 °F 51.1 °F 78% 30.01 in 10.0 mi North 5.8 mph - N/A   Clear
1:53 AM 57.0 °F 50.0 °F 77% 30.03 in 10.0 mi North 5.8 mph - N/A   Clear
2:53 AM 53.1 °F 48.9 °F 86% 30.04 in 10.0 mi Calm Calm - N/A   Clear
3:53 AM 52.0 °F 48.9 °F 89% 30.04 in 10.0 mi North 3.5 mph - N/A   Clear
4:50 AM 51.8 °F 48.2 °F 88% 30.06 in 9.0 mi Calm Calm - N/A   Mostly Cloudy
4:53 AM 51.1 °F 48.9 °F 92% 30.06 in 9.0 mi Calm Calm - N/A   Mostly Cloudy
5:53 AM 53.1 °F 50.0 °F 89% 30.07 in 10.0 mi Calm Calm - N/A   Overcast
6:53 AM 55.0 °F 52.0 °F 89% 30.08 in 10.0 mi Calm Calm - N/A   Overcast
7:05 AM 55.4 °F 51.8 °F 88% 30.08 in 10.0 mi Calm Calm - N/A   Overcast
7:20 AM 57.2 °F 51.8 °F 82% 30.08 in 10.0 mi Calm Calm - N/A   Overcast
7:53 AM 57.0 °F 52.0 °F 83% 30.09 in 10.0 mi Calm Calm - N/A   Overcast
8:53 AM 59.0 °F 53.1 °F 81% 30.09 in 10.0 mi Calm Calm - N/A   Overcast
9:53 AM 59.0 °F 53.1 °F 81% 30.09 in 10.0 mi Calm Calm - N/A   Overcast
10:53 AM 60.1 °F 52.0 °F 75% 30.09 in 10.0 mi Calm Calm - N/A   Overcast
11:53 AM 63.0 °F 54.0 °F 72% 30.09 in 10.0 mi Calm Calm - N/A   Overcast
12:53 PM 64.9 °F 54.0 °F 68% 30.09 in 10.0 mi ESE 4.6 mph - N/A   Scattered Clouds
1:03 PM 66.2 °F 53.6 °F 64% 30.09 in 10.0 mi Variable 4.6 mph - N/A   Mostly Cloudy
1:25 PM 66.2 °F 55.4 °F 68% 30.08 in 10.0 mi East 5.8 mph - N/A   Scattered Clouds
1:53 PM 68.0 °F 55.0 °F 63% 30.08 in 10.0 mi Calm Calm - N/A   Partly Cloudy
2:53 PM 69.1 °F 55.9 °F 63% 30.07 in 10.0 mi Variable 4.6 mph - N/A   Clear
3:53 PM 70.0 °F 55.9 °F 61% 30.06 in 10.0 mi ENE 3.5 mph - N/A   Clear
4:53 PM 70.0 °F 55.9 °F 61% 30.06 in 10.0 mi Calm Calm - N/A   Clear
5:53 PM 70.0 °F 55.9 °F 61% 30.06 in 10.0 mi ENE 5.8 mph - N/A   Mostly Cloudy
6:53 PM 69.1 °F 55.0 °F 61% 30.06 in 10.0 mi NNE 6.9 mph - N/A   Mostly Cloudy
7:53 PM 66.9 °F 53.1 °F 61% 30.06 in 10.0 mi North 6.9 mph - N/A   Mostly Cloudy
8:53 PM 64.9 °F 53.1 °F 65% 30.07 in 10.0 mi Calm Calm - 0.00 in   Overcast
9:53 PM 62.1 °F 55.0 °F 78% 30.08 in 7.0 mi NNW 8.1 mph - 0.06 in Rain Light Rain
10:53 PM 62.1 °F 54.0 °F 75% 30.09 in 10.0 mi North 6.9 mph - 0.00 in   Mostly Cloudy
11:53 PM 60.1 °F 52.0 °F 75% 30.09 in 10.0 mi North 5.8 mph - N/A   Partly Cloudy